Location: Heiligenberg
(48.5381°N, 7.3897°E)
Time: 02:43:00
(UTC+00:00)

Cosmos 1544 Rocket - Pass Details

Date: 26 May 2022
Orbit: 603 x 631 km, 82.5° (Epoch: 26 June)

Event Time Altitude Azimuth Distance (km) Brightness Sun altitude
Rises 01:03:30 0° 352° (N) 2,921 8.0 -17.1°
Reaches altitude 10° 01:05:46 10° 355° (N) 2,005 7.1 -17.0°
Maximum altitude 01:10:12 68° 79° (E) 669 3.8 -16.7°
Enters shadow 01:13:12 20° 159° (SSE) 1,448 5.1 -16.5°
